User: anonymous   Login
Location: Platte
(43.3870°N, 98.8440°W)
Time: 07:21:57
(UTC-06:00)
Language:

Landsat 7 - Orbit

View from above orbital plane
View from above orbital plane
View from above satellite
View from above satellite

Ground track
Ground track

The orbit data is extracted from the following two-line orbital elements,

1 25682U 99020A   17022.75204266 +.00000075 +00000-0 +26617-4 0  9995
2 25682 098.1890 095.8894 0001203 075.1392 284.9935 14.57125168945419
Epoch (UTC): 22 January 2017 18:02:56
Eccentricity: 0.0001203
inclination: 98.1890°
perigee height: 701 km
apogee height: 703 km
right ascension of ascending node: 95.8894°
argument of perigee: 75.1392°
revolutions per day: 14.57125168
mean anomaly at epoch: 284.9935°
orbit number at epoch: 94541

The dashed part of the orbit path shows where the satellite is in the earth's shadow,  

DLR